{"data":{"norad_id":42907,"intl_designator":"2017-046A","name":"COSMOS 2520","alt_names":[],"object_type":"PAYLOAD","status":"ACTIVE","operator":null,"country":"CIS","launch_date":"2017-08-16","launch_site_code":"TYMSC","launch_vehicle":null,"mission":null,"orbit_class":"UNKNOWN","rcs_meters":null,"size_class":null,"mass_kg":null,"dimensions":null,"purposes":["comms"],"wikipedia_slug":null,"has_3d_model":false,"image_url":null,"decayed_at":null,"tle_current":{"epoch":"2026-05-24T19:24:09.578880Z","epoch_age_seconds":87712,"freshness":"FRESH","line1":"1 42907U 17046A   26144.80844420  .00000000  00000+0  00000+0 0  9995","line2":"2 42907   0.0150  61.0936 0001075  70.4175  86.9343  1.00269687 32166","mean_motion":1.00269687,"eccentricity":0.0001075,"inclination_deg":0.015,"raan_deg":61.0936,"arg_perigee_deg":70.4175,"mean_anomaly_deg":86.9343,"bstar":0,"rev_number":3216,"period_min":1436.1269523061,"perigee_km":35782.650345093,"apogee_km":35791.715888918,"semimajor_km":42165.320117005,"source":"CELESTRAK","updated_at":"2026-05-25T13:38:14.046905Z"}}}